Dewpoint
49 49 49 49 49 49 49 49 49 49 48 48 49 49 49 48 47 47 47 46 46 46 46 46 46 46 46 48 49 50 51 51 52 52 53 54 55 56 57 57 57 57 57 57 57 57 57 57 58 59 60 60 60 60 60 60 60 61 61 61 62 62 62 61 61 60 60 60 60 60 60 60 60 60 60 60 60 59 59 57 56 55 55 54 53 53
49 49 48 48 49 49 49 48 48 48 48 48 48 48 49 47 46 46 46 46 46 46 46 46 46 46 46 47 48 49 50 51 51 52 52 53 54 55 56 57 57 57 57 57 57 57 57 58 58 59 60 60 60 60 60 60 60 60 60 60 60 60 60 60 60 60 60 60 60 60 60 60 60 60 60 59 58 57 56 55 55 55 54 53 53 53
48 48 48 48 48 48 48 48 48 48 48 48 48 48 48 47 46 46 46 46 46 46 46 46 46 46 46 46 47 49 49 50 51 51 51 52 53 54 55 56 57 57 57 57 57 57 57 58 58 59 59 59 59 59 59 59 59 59 59 59 59 59 59 59 60 60 60 60 60 60 60 60 59 58 57 56 55 55 55 55 55 54 54 53 53 53
48 48 47 47 47 48 48 48 48 47 48 47 47 47 48 47 46 46 45 45 45 45 45 46 46 45 46 46 47 48 49 49 50 51 51 51 52 53 54 55 56 56 57 57 57 57 58 58 58 58 59 58 58 58 58 58 58 58 58 58 58 58 58 59 59 59 60 60 60 60 59 58 56 55 55 55 55 55 55 55 54 54 54 53 53 53
47 47 47 47 47 47 48 48 47 47 47 47 46 46 47 47 47 46 45 45 45 44 45 45 45 45 45 46 46 47 48 49 49 50 50 51 51 52 52 54 55 55 56 57 57 57 57 58 58 58 58 58 58 58 58 57 57 57 58 58 58 58 58 58 58 59 59 58 57 56 56 55 55 55 55 55 55 55 55 55 54 54 54 53 53 53
47 47 47 46 46 46 47 47 47 47 46 46 46 46 46 47 47 46 45 44 44 44 44 44 45 45 45 45 46 46 47 48 48 49 49 50 50 51 51 52 53 54 55 56 56 57 57 57 58 58 58 58 57 57 57 57 57 57 57 57 58 58 58 57 57 57 56 56 55 55 55 55 54 54 54 54 54 54 54 54 54 54 54 54 53 53
46 47 46 46 46 46 46 46 46 46 46 46 45 45 45 46 46 46 46 44 44 43 43 43 44 44 45 45 46 46 46 46 47 48 49 49 50 50 51 51 51 52 53 54 55 55 56 57 57 57 57 57 57 57 57 57 57 57 57 57 57 57 56 56 55 55 55 54 54 54 54 54 54 54 54 54 54 54 54 54 54 54 54 54 53 53
45 46 46 46 46 46 46 46 46 46 46 45 45 44 44 45 45 46 46 45 44 43 42 42 43 43 44 44 45 45 45 45 46 46 47 48 49 49 50 50 51 51 51 52 53 54 55 55 56 56 56 56 56 56 56 56 56 56 56 56 55 55 55 55 54 54 54 54 54 54 54 53 53 53 53 53 53 53 53 53 54 53 53 53 52 51
45 45 45 45 45 45 45 45 46 46 46 45 44 44 43 44 44 45 45 45 44 43 42 42 42 42 43 44 44 44 45 45 45 46 46 47 47 48 49 49 50 50 51 51 51 52 53 54 55 55 56 56 56 55 55 55 55 55 55 55 54 54 54 54 54 54 54 53 53 53 53 53 53 53 53 53 53 52 52 52 52 52 51 51 50 49
44 44 44 44 45 44 44 44 45 45 46 45 44 44 43 43 43 43 43 44 44 43 42 42 41 41 42 42 43 44 44 44 45 45 46 46 46 47 48 48 48 49 49 50 50 51 51 52 53 54 55 55 55 55 54 54 54 54 54 54 53 53 54 54 53 53 53 53 53 53 53 52 52 52 52 52 52 52 51 51 51 50 50 49 49 49
44 44 43 44 44 44 44 44 44 45 45 44 43 43 42 43 43 43 42 43 43 43 42 42 41 41 41 41 42 43 43 43 43 43 44 45 46 46 46 46 47 47 48 48 49 50 50 51 51 52 52 53 53 53 53 53 53 53 53 53 53 53 53 53 53 53 53 53 52 52 52 52 52 51 51 51 51 51 51 51 50 50 49 49 49 49
43 43 43 43 43 43 43 43 43 44 44 43 42 42 42 42 42 43 42 42 42 43 43 42 41 41 41 41 41 42 42 42 42 42 42 42 44 45 46 46 46 46 46 47 48 48 49 49 50 50 51 51 52 52 52 52 52 52 52 52 52 52 52 52 52 52 52 52 52 52 51 51 51 51 51 51 51 51 50 50 50 50 50 50 50 50
42 42 42 42 42 42 42 42 42 43 43 42 42 41 41 42 42 42 42 42 42 42 43 42 41 41 41 41 41 41 41 41 41 41 41 41 42 43 44 45 45 46 46 46 46 47 48 49 49 49 50 50 50 51 51 51 51 51 51 51 51 51 51 51 51 51 51 51 51 51 51 51 51 51 51 51 51 50 50 50 50 50 50 50 50 50
42 42 42 42 41 42 42 42 42 42 43 43 42 42 41 41 41 41 41 40 41 41 42 41 41 40 40 41 41 41 41 40 40 40 40 40 40 42 43 43 44 45 45 45 46 46 47 47 48 48 49 49 49 50 50 51 51 51 51 51 51 51 51 51 51 51 51 51 51 51 51 51 51 51 50 50 50 50 50 50 49 49 49 49 49 49
41 41 41 41 41 41 42 42 42 42 42 43 42 42 41 41 41 40 40 39 39 40 40 40 40 40 40 40 41 41 41 40 39 39 38 39 40 41 42 42 43 44 44 44 45 46 46 46 47 47 48 48 48 49 49 49 50 50 50 50 50 50 50 50 50 50 50 50 50 50 50 50 50 49 49 49 49 49 49 49 49 49 48 48 48 49
41 41 41 40 41 41 42 42 42 42 42 43 42 42 41 40 40 40 39 39 39 38 38 38 39 39 40 40 41 41 41 39 39 38 38 38 39 40 41 41 42 42 43 43 44 45 46 46 46 47 47 47 48 48 48 48 49 49 49 49 49 49 49 49 49 49 49 49 49 49 49 48 48 48 48 48 48 48 48 48 48 48 48 48 48 48
41 41 41 41 41 41 42 42 42 42 42 42 42 42 41 41 40 40 39 39 38 38 37 37 37 37 38 39 40 41 41 39 38 38 37 37 38 39 40 40 40 40 41 42 43 44 45 46 46 46 47 47 47 47 47 48 48 48 48 48 48 48 48 48 48 48 48 48 48 48 48 48 48 48 48 48 48 48 48 48 48 48 48 48 48 48
41 41 41 41 41 41 42 42 42 42 42 42 42 41 41 41 41 40 39 39 38 37 37 37 37 37 37 37 38 40 41 40 38 37 37 37 38 39 40 39 39 39 39 41 42 43 45 45 46 46 47 47 47 47 47 47 47 47 47 47 47 47 47 47 47 47 47 47 47 47 47 47 47 47 47 47 47 48 48 48 48 48 48 48 48 48
41 42 42 41 41 42 42 42 42 42 42 42 42 41 41 41 41 40 40 39 38 37 37 37 37 37 37 37 38 40 41 40 38 37 37 37 37 38 39 39 38 38 38 39 40 42 44 45 46 46 47 47 47 47 47 47 47 47 47 47 47 47 47 47 47 47 47 47 47 47 47 47 47 47 47 47 47 47 47 48 48 48 48 48 47 47
41 42 42 42 42 42 42 42 42 43 43 43 42 42 41 41 41 40 40 39 39 38 38 37 37 37 37 37 38 40 41 40 39 38 37 37 37 38 39 38 37 37 37 38 39 40 42 44 45 46 46 46 46 47 47 47 47 47 47 47 47 47 47 47 47 47 47 47 47 47 47 47 47 47 47 47 47 47 47 47 47 48 48 48 48 48
41 41 42 43 42 42 42 42 43 44 44 44 43 42 41 41 41 41 40 39 39 38 38 37 37 37 37 37 38 39 41 40 38 37 37 37 37 37 38 38 37 37 37 37 38 39 41 42 44 45 46 46 46 46 46 46 46 46 46 46 46 46 46 46 46 46 47 47 47 47 47 47 47 47 47 47 47 47 47 47 47 47 47 48 48 48
41 42 42 43 43 42 42 43 43 44 45 44 43 42 42 42 41 41 40 40 39 38 38 38 38 38 38 38 39 39 40 40 39 37 37 36 36 36 38 38 37 37 36 37 37 38 39 40 42 44 46 46 46 46 46 46 46 46 46 46 46 46 46 46 46 46 46 46 47 47 47 47 47 47 47 47 47 47 47 47 47 47 47 47 47 47
42 42 43 43 43 43 44 44 44 44 45 44 44 43 43 42 41 40 40 40 39 39 39 39 39 39 38 38 38 39 39 40 39 38 36 35 35 36 37 37 37 37 36 37 37 38 38 39 40 42 44 45 46 46 46 46 46 46 46 46 46 46 46 46 46 46 46 46 46 46 47 47 47 47 47 47 47 47 47 46 47 47 47 47 47 47
43 43 43 44 44 44 44 44 44 44 44 44 44 44 44 43 42 42 41 41 40 40 39 39 38 38 38 38 38 38 38 39 38 38 36 35 35 36 37 37 37 36 36 37 37 37 37 38 38 39 41 43 44 45 45 46 46 46 46 46 46 46 46 46 46 46 46 46 46 46 46 46 46 46 46 46 46 46 46 46 46 46 46 46 46 46
44 44 44 44 45 45 45 45 45 44 44 43 43 43 44 44 43 43 42 42 41 40 38 37 37 37 37 38 37 37 38 38 38 37 36 35 35 36 37 37 37 36 36 37 37 37 37 37 37 38 38 40 42 43 44 45 45 46 46 46 46 46 46 46 46 46 46 46 46 46 46 46 46 46 46 46 46 46 46 46 46 46 46 46 46 46
45 45 45 45 45 45 45 45 45 45 44 44 43 43 43 43 42 41 40 40 40 39 37 37 37 38 38 37 37 37 38 38 38 37 36 35 35 35 36 37 37 36 36 36 37 37 37 36 36 37 37 38 40 42 42 43 44 45 45 46 46 46 46 46 46 46 46 46 46 46 46 46 46 46 46 45 45 45 45 45 46 46 46 46 46 46
44 44 44 44 44 44 44 44 44 44 44 44 43 43 42 41 39 39 40 40 40 38 37 38 38 38 38 37 37 37 38 38 38 37 36 35 34 35 36 36 36 36 36 36 36 37 36 36 35 36 36 36 37 39 40 41 42 43 44 44 45 45 45 46 46 46 46 46 46 46 46 46 46 45 45 45 45 45 45 45 45 45 46 46 46 46
44 43 43 43 43 43 43 43 43 44 44 44 43 43 42 40 39 39 40 41 40 38 38 39 39 38 38 37 37 37 38 38 39 38 36 34 34 35 35 36 36 36 35 36 36 36 36 35 35 35 35 35 36 37 37 39 39 40 42 42 43 43 44 44 45 45 45 45 45 45 45 45 45 45 45 45 45 45 45 45 45 45 45 44 44 44
43 43 43 42 42 42 42 42 42 43 43 43 42 42 41 40 39 39 39 41 41 40 39 40 40 39 38 38 38 38 38 38 39 39 37 35 34 35 35 35 35 35 35 35 35 36 35 35 34 34 34 35 35 35 36 37 37 38 39 40 41 42 42 43 43 44 44 45 45 45 45 45 45 45 45 45 45 45 45 45 45 45 44 43 43 43
42 42 42 42 42 41 41 41 41 42 42 42 42 42 41 40 39 38 39 39 40 41 41 40 40 39 39 38 37 37 37 38 39 39 37 35 35 35 35 34 34 34 34 34 35 35 34 34 35 35 34 34 34 34 35 35 36 36 37 38 39 40 41 41 42 42 43 44 44 44 45 45 45 45 45 46 46 46 46 46 45 44 43 42 42 42
42 42 41 41 41 40 40 40 40 40 41 41 41 41 40 39 39 38 38 38 39 40 40 39 39 38 38 37 37 36 36 37 40 40 37 35 35 35 34 33 33 33 34 34 35 35 34 34 34 35 35 33 33 33 34 35 35 35 35 36 37 38 40 40 41 42 42 43 43 44 44 45 45 45 45 46 46 46 46 46 46 44 42 42 42 42
41 41 41 40 40 40 39 39 39 39 39 39 40 40 40 39 39 39 38 38 38 39 39 39 38 37 37 37 36 36 36 37 40 40 37 35 34 34 34 33 33 33 34 34 34 35 33 33 33 34 34 33 33 33 34 34 34 34 35 35 36 37 39 39 40 41 41 42 42 43 43 44 44 45 45 45 46 46 46 46 46 45 43 42 42 42
39 40 40 40 39 39 39 39 39 38 38 38 39 39 39 39 39 39 38 38 38 38 38 38 38 37 37 36 36 37 37 38 40 41 38 34 33 33 33 33 33 33 34 34 34 34 34 33 33 33 34 34 33 33 33 34 34 35 35 35 35 36 37 38 39 39 41 41 41 42 42 43 43 44 45 45 45 45 46 46 46 45 44 42 42 42
37 38 39 39 38 38 38 38 38 38 38 38 38 38 38 38 38 38 38 38 38 38 38 38 38 38 37 37 37 37 37 38 40 41 40 35 33 33 33 34 34 33 33 33 33 33 33 33 33 33 33 33 33 33 32 33 34 34 35 35 35 36 37 37 37 38 40 40 40 40 41 42 42 43 44 44 45 45 45 45 45 45 45 44 43 42
36 37 38 38 38 37 37 38 38 38 38 38 38 38 38 38 38 38 38 38 38 38 38 38 38 38 37 37 37 36 37 37 39 41 41 36 33 33 33 34 34 33 32 32 32 32 32 33 33 33 33 33 33 32 32 33 33 34 35 36 36 36 36 36 37 37 39 39 39 39 40 40 41 42 43 44 44 44 45 45 45 45 45 45 45 43
35 36 37 37 37 37 37 37 37 38 38 38 38 39 38 38 38 38 37 38 38 38 38 38 38 38 38 37 37 36 36 37 39 40 40 37 34 33 33 34 34 33 33 32 31 31 30 32 33 33 33 32 31 31 31 32 33 34 35 36 37 37 37 37 37 37 38 39 39 39 39 40 41 42 42 43 44 44 44 44 45 45 45 45 45 45
35 36 37 37 37 37 37 37 37 37 38 38 38 39 39 38 38 38 37 37 37 37 38 38 39 39 39 38 37 37 36 37 38 39 39 37 35 34 33 34 35 34 33 34 33 32 31 31 31 32 31 30 30 30 31 31 32 33 34 35 36 37 37 37 37 37 37 39 40 40 40 40 41 41 42 43 43 43 44 44 44 45 45 45 45 45
36 36 37 37 37 37 37 37 37 37 38 38 38 38 38 38 37 37 37 36 36 36 37 37 38 38 39 39 38 37 37 37 37 37 38 37 37 36 34 34 35 35 34 35 35 35 33 32 31 30 30 29 30 31 31 30 30 31 33 34 35 36 37 37 37 37 37 38 39 40 40 40 40 41 41 42 42 42 42 43 43 44 44 45 45 46
36 36 37 37 37 37 37 37 37 37 37 38 38 38 38 38 37 37 37 37 37 37 37 37 37 37 36 37 37 38 38 37 37 37 37 37 36 36 35 34 35 35 35 35 36 35 33 32 30 29 29 29 29 29 30 29 30 31 32 33 34 35 36 37 37 37 37 37 38 39 40 40 40 40 40 40 41 41 42 42 42 43 43 43 44 45
37 37 37 37 37 37 37 37 37 37 37 37 38 39 38 39 38 37 37 38 38 38 37 37 37 37 37 37 38 38 37 37 37 37 36 36 36 35 35 34 35 36 37 37 37 37 34 32 32 31 31 28 28 29 29 28 30 32 33 33 33 34 36 37 37 36 36 37 37 38 39 39 40 40 41 40 41 41 41 41 42 43 43 43 42 42
37 36 37 37 37 37 37 37 37 37 37 37 37 37 37 38 38 38 38 38 38 38 38 37 37 37 37 37 37 37 37 37 37 37 35 36 36 36 37 35 36 37 37 38 38 37 36 34 33 32 30 28 29 29 29 29 32 34 33 33 32 33 34 36 36 36 36 36 37 37 38 39 39 40 41 41 41 41 42 42 42 42 43 42 42 42
37 36 36 37 37 37 37 37 37 37 37 36 36 36 37 37 37 38 37 36 36 36 37 37 36 35 35 36 37 37 37 37 37 37 36 35 35 35 37 36 36 37 37 36 36 35 36 35 34 32 30 29 30 31 30 30 32 33 33 32 32 33 34 35 36 37 37 37 37 37 38 37 38 39 40 41 41 41 42 42 42 43 43 42 42 42
36 37 37 37 37 37 38 37 37 37 37 37 37 37 37 38 38 38 37 35 34 34 35 35 35 34 33 34 35 36 36 37 37 37 37 35 35 35 36 37 37 37 37 36 36 36 35 34 33 32 33 33 33 33 29 30 31 32 33 33 33 32 33 33 34 36 37 38 37 37 37 37 37 38 40 40 41 41 41 42 43 43 44 43 42 42
37 37 37 37 37 37 38 37 37 37 37 36 36 37 37 37 37 37 36 35 36 36 35 34 34 35 33 31 32 34 35 36 36 36 36 37 37 36 35 36 36 36 37 37 37 36 36 35 33 32 34 36 36 35 33 31 29 29 30 32 32 31 31 32 33 35 36 37 37 37 37 37 37 37 39 39 40 40 40 41 42 42 43 43 43 43
37 37 37 37 38 37 37 37 37 37 37 37 37 37 37 37 36 36 35 36 36 37 36 35 36 36 33 30 31 32 34 34 35 35 34 36 37 37 35 36 36 37 37 37 36 36 35 35 34 33 34 35 34 33 34 33 32 32 32 33 32 31 30 32 33 34 35 35 36 36 36 37 36 36 38 39 39 40 40 41 41 42 42 42 42 43
37 37 37 37 37 37 37 37 37 37 37 37 37 37 37 37 37 37 37 36 35 34 33 35 36 35 33 31 30 31 32 33 34 34 34 35 36 36 36 36 37 37 36 36 36 35 34 34 34 35 36 35 33 31 33 34 34 33 31 32 31 31 32 33 33 34 34 34 35 35 36 36 36 37 38 38 39 40 41 41 41 42 42 42 42 42
36 36 36 36 37 37 37 37 37 37 37 37 36 36 36 37 36 36 37 37 37 36 36 35 35 34 33 30 28 28 30 33 33 34 34 35 35 35 36 36 37 36 36 36 34 32 30 32 33 33 34 33 32 31 32 33 34 33 31 30 30 31 33 33 33 34 33 34 34 34 35 36 37 37 37 37 38 39 40 41 41 42 42 42 42 42
36 36 36 36 36 36 37 37 37 37 37 37 37 36 36 36 36 36 36 36 36 37 37 36 35 35 34 33 31 28 30 32 33 33 34 34 35 35 35 35 35 35 35 36 34 32 30 30 30 30 31 32 32 32 32 32 33 33 32 30 30 31 33 33 33 34 34 34 34 33 34 35 36 37 37 37 37 38 39 40 41 42 42 42 42 42
35 35 35 36 35 35 36 36 36 36 36 36 36 36 36 36 37 37 36 36 36 36 36 36 35 35 34 34 33 33 33 33 33 33 34 34 35 35 35 35 35 35 34 34 32 31 31 32 32 32 32 30 29 30 31 32 32 33 34 32 31 32 33 33 34 34 34 34 34 34 34 35 35 36 36 37 37 37 38 39 40 41 42 42 42 42
35 35 35 35 35 35 35 36 36 36 36 36 36 36 36 36 36 36 36 36 36 36 35 35 35 34 34 34 34 34 34 33 33 33 34 34 35 35 35 35 35 35 35 32 30 29 28 30 31 33 36 34 32 29 29 31 31 32 33 33 32 31 33 33 34 34 34 35 35 34 34 35 36 36 36 37 37 37 37 38 39 40 41 42 42 42
33 34 34 34 34 35 35 35 35 36 36 36 36 36 36 36 36 36 36 36 36 36 35 35 35 34 34 34 34 34 34 34 33 33 33 34 34 35 35 35 35 35 34 30 28 28 27 28 28 30 33 36 36 33 29 31 32 32 33 30 28 28 30 33 33 33 34 35 35 34 35 36 37 37 37 37 36 36 37 37 38 39 40 41 41 42